Davenport, IA

7:18 PM CDT on September 24, 2016 (GMT -0500)
Davenport Municipal

Weather History for KDVN - January, 2014

Change the Weather History Date:

Monday, January 6, 2014

  Actual Average Record
Temperature  
Mean Temperature -12 °F 21 °F  
Max Temperature -8 °F 30 °F 60 °F (2008)
Min Temperature -16 °F 13 °F -16 °F (2014)
Degree Days  
Heating Degree Days 77 44  
Month to date heating degree days 353 263  
Since 1 July heating degree days 3185 2843  
Cooling Degree Days 0 0  
Month to date cooling degree days 0 0  
Year to date cooling degree days 0 0  
Moisture  
Dew Point -20 °F    
Average Humidity 68    
Maximum Humidity 79    
Minimum Humidity 57    
Precipitation  
Precipitation 0.00 in 0.02 in 0.40 in (1969)
Month to date precipitation 0.21 0.16  
Year to date precipitation 0.21 0.16  
Snow  
Snow 0.00 in - - ()
Month to date snowfall 4.2  
Since 1 July snowfall 21.4  
Snow Depth 2.00 in    
Sea Level Pressure  
Sea Level Pressure 30.36 in    
Wind  
Wind Speed 20 mph (WNW)    
Max Wind Speed 30 mph    
Max Gust Speed 37 mph    
Visibility 8 miles    
Events      
T = Trace of Precipitation, MM = Missing Value Source: NWS Daily Summary

Daily Weather History Graph

Daily Weather History Graph

Search for Another Location

Airport or City:

Trip Planner

Search our weather history database for the weather conditions in past years. The results will help you decide how hot, cold, wet, or windy it might be!

Date:

Astronomy

Jan. 06, 2014 Rise Set
Actual Time 7:29 AM CST 4:47 PM CST
Civil Twilight 6:58 AM CST 5:18 PM CST
Nautical Twilight 6:23 AM CST 5:53 PM CST
Astronomical Twilight 5:49 AM CST 6:26 PM CST
Moon 10:39 AM CST (1/6) 11:26 PM CST (1/6)
Length of Visible Light 10h 20m
Length of Day
9h 18m
Waxing Crescent, 35% of the Moon is Illuminated
Jan 6
Waxing Crescent
Jan 7
First Quarter
Jan 15
Full
Jan 23
Last Quarter
Jan 30
New

Hourly Weather History & Observations

Time (CST) Temp. Windchill Dew Point Humidity Pressure Visibility Wind Dir Wind Speed Gust Speed Precip Events Conditions
12:31 AM -11.2 °F -37.6 °F -18.4 °F 70% 30.26 in 9.0 mi WNW 21.9 mph 31.1 mph N/A   Mostly Cloudy
12:52 AM -11.9 °F -39.1 °F -20.0 °F 67% 30.32 in 8.0 mi WNW 23.0 mph 34.5 mph N/A   Overcast
1:16 AM -13.0 °F -41.1 °F -22.0 °F 64% 30.26 in 10.0 mi WNW 24.2 mph 29.9 mph N/A   Scattered Clouds
1:52 AM -13.0 °F -41.6 °F -23.1 °F 61% 30.33 in 7.0 mi WNW 25.3 mph 34.5 mph N/A   Clear
2:52 AM -14.1 °F -40.2 °F -24.0 °F 61% 30.35 in 10.0 mi WNW 19.6 mph 33.4 mph N/A   Clear
3:52 AM -15.0 °F -44.3 °F -25.1 °F 61% 30.35 in 9.0 mi WNW 25.3 mph 34.5 mph N/A   Clear
4:52 AM -16.1 °F -40.7 °F -22.0 °F 74% 30.36 in 10.0 mi WNW 16.1 mph - N/A   Scattered Clouds
5:03 AM -14.8 °F -41.2 °F -23.8 °F 64% 30.29 in 10.0 mi WNW 19.6 mph 26.5 mph N/A   Mostly Cloudy
5:11 AM -14.8 °F -41.8 °F -23.8 °F 64% 30.29 in 10.0 mi WNW 20.7 mph - N/A   Partly Cloudy
5:52 AM -16.1 °F -44.0 °F -24.0 °F 67% 30.37 in 9.0 mi WNW 21.9 mph 28.8 mph N/A   Clear
6:52 AM -16.1 °F -44.6 °F -25.1 °F 64% 30.38 in 10.0 mi WNW 23.0 mph - N/A   Partly Cloudy
7:52 AM -16.1 °F -44.6 °F -24.0 °F 67% 30.38 in 5.0 mi WNW 23.0 mph 29.9 mph N/A   Haze
8:52 AM -16.1 °F -41.4 °F -24.0 °F 67% 30.40 in 10.0 mi WNW 17.3 mph - N/A   Partly Cloudy
9:24 AM -16.6 °F -42.9 °F -23.8 °F 70% 30.33 in 6.0 mi WNW 18.4 mph - N/A   Haze
9:52 AM -15.0 °F -42.6 °F -23.1 °F 67% 30.41 in 9.0 mi WNW 21.9 mph - N/A   Mostly Cloudy
10:33 AM -14.8 °F -44.5 °F -23.8 °F 64% 30.32 in 5.0 mi WNW 26.5 mph 32.2 mph N/A   Haze
10:52 AM -13.0 °F -41.6 °F -22.0 °F 64% 30.40 in 7.0 mi WNW 25.3 mph 31.1 mph N/A   Clear
11:52 AM -11.9 °F -41.1 °F -20.9 °F 64% 30.39 in 3.0 mi West 27.6 mph 31.1 mph N/A   Haze
12:00 PM -11.2 °F -40.6 °F -20.2 °F 64% 30.31 in 2.5 mi WNW 28.8 mph - N/A   Haze
12:11 PM -11.2 °F -40.6 °F -20.2 °F 64% 30.31 in 4.0 mi WNW 28.8 mph - N/A   Haze
12:52 PM -11.0 °F -39.4 °F -20.0 °F 64% 30.38 in 6.0 mi West 26.5 mph - N/A   Haze
1:52 PM -9.0 °F -35.8 °F -18.0 °F 65% 30.38 in 10.0 mi West 24.2 mph 27.6 mph N/A   Clear
2:52 PM -9.0 °F -36.3 °F -18.0 °F 65% 30.39 in 7.0 mi WNW 25.3 mph - N/A   Clear
3:52 PM -9.0 °F -34.8 °F -17.0 °F 68% 30.40 in 9.0 mi West 21.9 mph 26.5 mph N/A   Scattered Clouds
4:52 PM -9.0 °F -33.6 °F -17.0 °F 68% 30.39 in 10.0 mi West 19.6 mph - N/A   Clear
5:52 PM -9.0 °F -33.0 °F -17.0 °F 68% 30.39 in 10.0 mi West 18.4 mph - N/A   Clear
6:52 PM -8.0 °F -30.3 °F -16.1 °F 68% 30.38 in 10.0 mi West 16.1 mph - N/A   Clear
7:52 PM -8.0 °F -28.8 °F -16.1 °F 68% 30.39 in 10.0 mi West 13.8 mph - N/A   Clear
8:52 PM -8.0 °F -28.0 °F -15.0 °F 71% 30.38 in 10.0 mi WSW 12.7 mph - N/A   Clear
9:52 PM -8.0 °F -27.1 °F -15.0 °F 71% 30.37 in 10.0 mi WSW 11.5 mph - N/A   Clear
10:52 PM -9.0 °F -29.3 °F -15.0 °F 75% 30.37 in 10.0 mi West 12.7 mph - N/A   Clear
11:52 PM -9.0 °F -28.4 °F -16.1 °F 71% 30.35 in 10.0 mi West 11.5 mph - N/A   Clear